Location: Bear Valley
(38.4650°N, 120.0390°W)
Time: 21:56:35
(UTC-08:00)

ISS - Visible Passes

Search period start: 24 November 2017 00:00
Search period end: 04 December 2017 00:00
Orbit: 401 x 407 km, 51.6° (Epoch: 25 November)

Date Brightness Start Highest point End Pass type
(mag) Time Alt. Az. Time Alt. Az. Time Alt. Az.
24 Nov -1.3 18:47:15 10° SSW 18:48:04 16° SSW 18:48:04 16° SSW visible
25 Nov -2.2 17:55:39 10° S 17:58:06 20° SE 17:58:17 19° SE visible
26 Nov -2.7 18:38:42 10° SW 18:41:04 44° WSW 18:41:04 44° WSW visible
27 Nov -3.5 17:46:27 10° SSW 17:49:37 51° SE 17:51:06 27° ENE visible
27 Nov -0.2 19:23:43 10° WNW 19:23:46 10° WNW 19:23:46 10° WNW visible
28 Nov -2.5 18:30:44 10° W 18:33:42 32° NNW 18:33:42 32° NNW visible
29 Nov -3.5 17:38:01 10° WSW 17:41:14 59° NW 17:43:33 17° NE visible
30 Nov -1.7 18:23:13 10° WNW 18:25:35 18° NNW 18:25:59 18° NNW visible
01 Dec -2.2 17:30:06 10° W 17:32:57 27° NNW 17:35:42 11° NNE visible
02 Dec -1.2 18:16:09 10° NW 18:17:30 12° NNW 18:18:00 12° N visible
03 Dec -1.5 17:22:37 10° WNW 17:24:46 16° NNW 17:26:55 10° NNE visible
